Location: Street
(51.1247°N, 2.7429°W)
Time: 05:40:45
(UTC+00:00)

SR - Pass Details

Date: 05 December 2020
Orbit: 575 x 880 km, 66.7° (Epoch: 25 January)

Event Time Altitude Azimuth Distance (km) Brightness Sun altitude
Rises 16:16:59 0° 180° (S) 2,815 ? -2.4°
Reaches altitude 10° 16:19:27 10° 166° (SSE) 1,948 ? -2.7°
Maximum altitude 16:23:00 25° 112° (ESE) 1,285 ? -3.2°
Drops below altitude 10° 16:26:47 10° 58° (ENE) 2,083 ? -3.7°
Enters shadow 16:28:17 - 49° (NE) 2,601 ? -3.9°
Sets 16:29:31 0° 45° (NE) 3,057 - -4.0°
